Regional Weather Roundup
Issued by NWS

Home | Current Version | Previous Version | Graphics & Text | Print | Product List | Glossary Off
Versions: 1 2 3 4 5 6 7 8 9 10 11 12 13 14 15 16 17 18 19 20 21 22 23 24 25 26 27 28 29 30 31 32 33 34 35 36 37 38 39 40 41 42 43 44 45 46 47 48 49 50

000
ASUS43 KTOP 220959
RWRKS

WEATHER ROUNDUP FOR KANSAS
NATIONAL WEATHER SERVICE GOODLAND KS
500 AM CDT FRI SEP 22 2017

NOTE:  "FAIR" INDICATES FEW OR NO CLOUDS BELOW 12,000 FEET WITH NO
SIGNIFICANT WEATHER AND/OR OBSTRUCTIONS TO VISIBILITY.

KSZ001>006-013>018-027>032-041>047-221100-
NORTHWEST KANSAS

CITY           SKY/WX    TMP DP  RH WIND       PRES   REMARKS
GOODLAND       CLEAR     64  51  62 S15       29.73R
HAYS           CLEAR     77  67  71 S18G25    29.79R
HILL CITY      CLEAR     78  67  68 S20G29    29.75R
RUSSELL        CLEAR     76  67  73 S21G29    29.79S
$$

KSZ061>065-074>080-084>089-221100-
SOUTHWEST KANSAS

CITY           SKY/WX    TMP DP  RH WIND       PRES   REMARKS
DODGE CITY     CLEAR     76  64  66 S20G30    29.83R
ELKHART          N/A     68  58  70 S14         N/A
GARDEN CITY    CLEAR     74  61  63 S21G30    29.80R
GREAT BEND     CLEAR     75  67  76 S17       29.83R
LIBERAL        CLEAR     74  61  63 S21G26    29.83R
$$

KSZ066>073-081>083-090>101-221100-
SOUTHEAST KANSAS

CITY           SKY/WX    TMP DP  RH WIND       PRES   REMARKS
CHANUTE        CLEAR     73  69  87 SE8       29.94S
COFFEYVILLE    CLEAR     73  70  90 SE8       29.93S
HUTCHINSON     PTCLDY    76  69  79 S15       29.86R
MEDICINE LODGE   N/A     75  66  73 SE12      29.85R
NEWTON         CLEAR     74  68  81 S14G20    29.89S
WICHITA INTL   CLEAR     74  69  85 S13       29.88R
WICHITA JABRA  CLEAR     73  70  90 S12       29.89R
WINFIELD       CLEAR     73  70  90 SE8       29.91R
$$

KSZ007>012-019>026-033>040-048>060-102>105-221100-
NORTHEAST KANSAS

CITY           SKY/WX    TMP DP  RH WIND       PRES   REMARKS
CONCORDIA      CLEAR     78  69  73 S20G29    29.81S
EMPORIA        CLEAR     74  69  85 S17       29.90S
LAWRENCE       CLEAR     77  70  79 SE10      29.91S
MANHATTAN      CLEAR     78  69  73 S12       29.85S
OLATHE IND     CLEAR     73  69  87 S8        29.94S
OLATHE EXE     CLEAR     72  70  93 S8        29.94S
SALINA         CLEAR     80  67  64 S18G30    29.82S
TOPEKA BILLARD CLEAR     74  71  91 SE7       29.90R
TOPEKA FORBES  CLEAR     75  71  87 S12       29.90S
$$




USA.gov is the U.S. government's official web portal to all federal, state and local government web resources and services.